Regional Weather Roundup
Issued by NWS Grand Forks, ND

Home | Current Version | Previous Version | Text Only | Print | Product List | Glossary Off
Versions: 1 2 3 4 5 6 7 8 9 10 11 12 13 14 15 16 17 18 19 20 21 22 23 24 25 26 27 28 29 30 31 32 33 34 35 36 37 38 39 40 41 42 43 44 45 46 47 48 49 50

000
ASUS43 KFGF 110331
RWRFGF
PRAIRIE TO PINES  WEATHER ROUNDUP
NATIONAL WEATHER SERVICE EASTERN NORTH DAKOTA/GRAND FORKS ND
900 PM CST SUN DEC 10 2017

 **SATELLITE DATA USED TO AUGMENT SKY COVER AT AUTOMATED STATIONS**
 *****  WEATHER ACROSS EASTERN NORTH DAKOTA  *****

CITY           SKY/WX    TMP DP  RH WIND       PRES   REMARKS
GRAND FORKS    LGT SNOW  26  24  92 S13       29.84F FOG     WCI  15
GRAND FRKS AFB FLURRIES  28  27  93 S12       29.81F WCI  18
GRAND FRKS NWS   N/A     25 N/A N/A S10         N/A  WCI  15
DEVILS LAKE    CLOUDY    35  31  85 W12       29.81F
FARGO          LGT SNOW  29  26  89 S14       29.87F FOG     WCI  18
WAHPETON ARPT  CLOUDY    30  23  74 SE8       29.90F WCI  23
$$

 ***** WEATHER ACROSS CENTRAL AND WESTERN NORTH DAKOTA  *****

CITY           SKY/WX    TMP DP  RH WIND       PRES   REMARKS
BISMARCK       FAIR      41  27  57 W6        29.93F
MINOT          CLOUDY    44  24  45 W18       29.86S
JAMESTOWN      CLOUDY    38  30  73 W9        29.86F
MINOT AFB      CLOUDY    41  25  53 W20       29.83F
GARRISON         N/A     40  22  48 W17       29.90F
WILLISTON      MOCLDY    40  19  43 W20       29.98R
DICKINSON      FAIR      35  19  52 W13       29.97F
HETTINGER      FAIR      37  16  42 W14       30.04F
$$

 *****  OTHER AIRPORT OBSERVATIONS IN OUR AREA  *****

CITY           SKY/WX    TMP DP  RH WIND       PRES   REMARKS
WALHALLA       FAIR      27  27 100 SE5       29.78F WCI  21
GRAFTON AIRPOR NOT AVBL
VALLEY CITY AR NOT AVBL
CANDO          CLOUDY    36  36 100 W18       29.79F
CAVALIER APRT  LGT SNOW  25  25 100 S8        29.80F WCI  16
GWINNER          N/A     36  30  80 SW9       29.90R
SHEYENNE NWR     N/A     31  27  86 S7        29.95S WCI  24
ROLLA          CLOUDY    36  30  80 W13       29.76F
 ***** THE ABOVE OBSERVATIONS ARE NON NWS ARE NOT QUALITY
       CONTROLLED AND MAY MIS-REPORT RAIN FOR SNOW...
$$

  *****  WEATHER ACROSS NORTHERN MINNESOTA  *****

CITY           SKY/WX    TMP DP  RH WIND       PRES   REMARKS
FLAG ISLAND    CLOUDY    18  14  86 S13       29.84F WCI   4
WARROAD        LGT SNOW  18  14  86 S8        29.84F WCI   7
ROSEAU         LGT SNOW  19  16  86 S9        29.82F WCI   9
HALLOCK        LGT SNOW  25  21  86 S14       29.80F VSB 1   WCI  13
THF RVR FALLS  LGT SNOW  21  19  93 S10       29.83F FOG     WCI  10
BAUDETTE       CLOUDY    17  14  88 S3        29.88F
WASKISH        CLOUDY    19  18  93 CALM      29.88F
CROOKSTON      LGT SNOW  25  21  86 S13       29.85F WCI  13
STEPHEN NDAWN    N/A     23  21  93 S13         N/A  WCI  11
GREENBUSH NDAW   N/A     19  18  93 S12         N/A  WCI   7
$$
  *****  WEATHER ACROSS CENTRAL AND WEST MINNESOTA  *****

CITY           SKY/WX    TMP DP  RH WIND       PRES   REMARKS
FOSSTON        LGT SNOW  19  18  93 S10       29.86F WCI   8
BEMIDJI        MOCLDY    19  16  86 SE5       29.87F WCI  12
PARK RAPIDS    CLOUDY    21  18  88 SW3       29.91F
ELBOW LAKE     LGT SNOW  28  24  84 S7        29.95F WCI  21
WADENA         CLOUDY    21  18  86 CALM      29.92F
DETROIT LAKES  FAIR      25  21  86 S6        29.89F WCI  18
MOORHEAD       LGT RAIN  27  25  93 S7        29.89F WCI  19
FERGUS FALLS   MIX PCPN  27  23  86 S6        29.95F WCI  20
MORRIS MN      CLOUDY    30  25  80 S5        29.94F
STAPLES        CLOUDY    21  18  86 CALM      29.93F
$$
  *****  WEATHER ELSEWHERE ACROSS MINNESOTA  *****

CITY           SKY/WX    TMP DP  RH WIND       PRES   REMARKS
DULUTH         MOCLDY    10   8  92 CALM      29.94F
INTRNTL FALLS  MOCLDY     8   3  80 CALM      29.91S
ELY            FAIR      -2  -6  84 CALM      29.93F
CLOQUET        FAIR      14  10  85 SE3       29.94F
WHEATON        NOT AVBL
BRAINERD       FAIR      20  16  84 CALM      29.95F
HIBBING        FAIR       5   2  87 CALM      29.91F
ALEXANDRIA     CLOUDY    26  22  84 S3        29.94F
SAINT CLOUD    MOCLDY    20  17  88 CALM      29.97F
MINNEAPOLIS    CLOUDY    25  21  85 S6        30.00F WCI  18
$$

  *****  WEATHER ACROSS SOUTH DAKOTA  *****

CITY           SKY/WX    TMP DP  RH WIND       PRES   REMARKS
SIOUX FALLS    CLOUDY    34  29  82 S3        29.99F
BROOKINGS      FAIR      32  28  85 SW8       29.97F WCI  25
WATERTOWN      FAIR      34  28  79 W8        29.95S
HURON          FAIR      36  27  69 W5        29.99F
SISSETON         N/A     34  27  75 SE8       29.90F
ABERDEEN       FAIR      33  28  81 W5        29.96F
MITCHELL       FAIR      38  27  64 W9        30.01F
PIERRE         FAIR      45  23  42 W9        30.01F
MOBRIDGE       FAIR      37  28  70 CALM      29.94F
RAPID CITY     FAIR      52   7  16 NW16      30.12S
$$

  *****  SOME WEATHER IN NEARBY STATES *****

CITY           SKY/WX    TMP DP  RH WIND       PRES   REMARKS
GLASGOW MT     FAIR      37  16  42 NW16      30.15R
GREAT FALLS MT FAIR      37  11  34 SW13      30.35S
CHEYENNE WY    FAIR      43   1  17 NW13G24   30.33R
SCOTTSBLUFF NE FAIR      32   9  38 N6        30.27S
OMAHA NE       FAIR      29  22  75 NE3       30.09S
DES MOINES IA  MOCLDY    36  24  62 SW3       30.08F
DAVENPORT IA   FAIR      23  19  85 CALM      30.12S
CHICAGO IL     CLOUDY    30  19  63 N7        30.07R WCI  23
EAU CLAIRE WI  MOCLDY    18  15  88 CALM      30.02F
LA CROSSE WI   CLOUDY    28  21  75 CALM      30.07S
$$

  *****  SOME NATIONAL WEATHER *****

CITY           SKY/WX    TMP DP  RH WIND       PRES   REMARKS
LA GUARDIA NY  CLOUDY    37  20  50 SW14      30.01S
RALEIGH NC     FAIR      31  25  78 SW5       30.15S
ATLANTA GA     FAIR      37  25  61 W6        30.22S
NEW ORLEANS LA FAIR      43  39  86 SW5       30.36R
OKLAHOMA CITY  FAIR      49  14  24 CALM      30.27R
ALBUQUERQUE NM FAIR      35   1  23 E5        30.45S
SALT LAKE CITY FAIR      29  26  89 CALM      30.60R FOG
LOS ANGELES CA CLOUDY    74  12   9 CALM      30.12R
BOISE ID       CLOUDY    26  20  77 S3        30.66R
SEATTLE WA     FAIR      42  30  62 N8        30.31F
$$

*** WEATHER ACROSS MANITOBA...SASKATCHEWAN AND ONTARIO ***
                ***ONTARIO***

CITY           SKY/WX    TMP DP  RH WIND       PRES   REMARKS
GERALDTON      MOCLDY    -9 -13  84 SW7       29.92F WCI -24
THUNDER BAY    PTCLDY    -4  -6  92 W2        30.02F
SIOUX LOOKOUT  CLOUDY    -6 -11  77 S13       29.84F WCI -25
TORONTO        FLURRIES  27  19  74 W14G22    29.86R WCI  15
BIG TROUT LK   FLURRIES  -2  -8  78 SW6       29.82F WCI -14
PICKLE LAKE    NOT AVBL
DRYDEN         CLOUDY     1  -2  85 S8        29.87F WCI -12
KENORA         MOCLDY    10   9  92 S7        29.84F WCI   0
$$
                *** MANITOBA***

CITY           SKY/WX    TMP DP  RH WIND       PRES   REMARKS
BRANDON        CLOUDY    32  28  86 W12       29.71F WCI  23
DAUPHIN        CLOUDY    34  30  86 W10       29.67F
ISLAND LAKE    LGT SNOW   3  -2  78 SE5       29.80F WCI  -6
PILOT MOUND      N/A     30  28  93 SW7         N/A  WCI  23
THE PAS        CLOUDY    18  14  86 N12       29.77R WCI   5
THOMPSON       LGT SNOW   1  -2  85 NW3       29.82R
WINNIPEG       FRZ DRZL  23  21  93 S15       29.77F VSB 1/2 WCI  10
LYNN LAKE      PTCLDY     3   1  92 N18G25    29.94R WCI -17
CHURCHILL      LGT SNOW   7   3  85 N10       29.90S WCI  -8
GILLAM         FLURRIES   0  -6  78 NW7       29.85R WCI -13
$$
                ***SASKATCHEWAN***

CITY           SKY/WX    TMP DP  RH WIND       PRES   REMARKS
ESTEVAN        MOCLDY    37  27  65 W18       29.86S
KINDERSLEY     PTCLDY    36  27  69 NW13G20   30.14R
LLOYDMINSTER   MOCLDY    37  30  75 NW15G21   30.11R
PRINCE ALBERT  LGT RAIN  37  32  81 N20G30    29.90R
REGINA         CLOUDY    39  30  70 NW33G47   29.87S
YORKTON        LGT RAIN  36  32  87 W23G31    29.70R
N. BATTLEFORD  CLOUDY    37  32  81 NW26G38   30.05R
LA RONGE       FLURRIES  28  25  86 N10G20    29.98R WCI  19
SASKATOON      MOCLDY    37  32  81 NW28G35   29.95R
SWIFT CURRENT  CLEAR     39  25  56 NW33G44   30.09R
$$
NOTE: THESE ARE AUTOMATED STATIONS WITH LIMITED QUALITY CONTROL
      "FAIR" INDICATES FEW OR NO CLOUDS BELOW 12,000 FEET WITH NO
      SIGNIFICANT WEATHER AND/OR OBSTRUCTIONS TO VISIBILITY.
      SKY/WX - SKY CONDITION AND SIGNIFICANT WEATHER.
      TMP - AIR TEMPERATURE.    DP   - DEWPOINT TEMPERATURE.
      RH  - RELATIVE HUMIDITY.  PRES - PRESSURE.
      HX  - HEAT INDEX.         WCI  - WIND CHILL INDEX.
$



USA.gov is the U.S. government's official web portal to all federal, state and local government web resources and services.